Sarasota, FL

7:17 PM EST on November 20, 2019 (GMT -0500)
Sarasota-bradenton

Weather History for KSRQ - September, 2019

Change the Weather History Date:

Tuesday, September 3, 2019

  Actual Average Record
Temperature  
Mean Temperature 87 °F 82 °F  
Max Temperature 93 °F 90 °F 95 °F (1990)
Min Temperature 80 °F 75 °F 65 °F (1984)
Degree Days  
Heating Degree Days 0 0  
Month to date heating degree days 0 0  
Since 1 July heating degree days 0 0  
Cooling Degree Days 22 17  
Month to date cooling degree days 65 51  
Year to date cooling degree days 2923 2348  
Growing Degree Days 37 (Base 50)    
Moisture  
Dew Point 74 °F    
Average Humidity 70    
Maximum Humidity 85    
Minimum Humidity 56    
Precipitation  
Precipitation 0.00 in 0.35 in 2.40 in (1940)
Month to date precipitation 0.16 1.03  
Year to date precipitation 41.55 39.36  
Sea Level Pressure  
Sea Level Pressure 29.77 in    
Wind  
Wind Speed 9 mph ()    
Max Wind Speed 18 mph    
Max Gust Speed 27 mph    
Visibility 10.0 miles    
Events Thunderstorm    
T = Trace of Precipitation, MM = Missing Value Source: Averaged Metar Reports

Daily Weather History Graph

Daily Weather History Graph

Search for Another Location

Airport or City:

Astronomy

Sep. 03, 2019 Rise Set
Actual Time 7:10 AM EDT 7:48 PM EDT
Civil Twilight 6:46 AM EDT 8:12 PM EDT
Nautical Twilight 6:18 AM EDT 8:40 PM EDT
Astronomical Twilight 5:50 AM EDT 9:08 PM EDT
Moon 11:37 AM EDT (9/3) 11:12 PM EDT (9/3)
Length of Visible Light 13h 25m
Length of Day
12h 38m
Waxing Crescent, 24% of the Moon is Illuminated
Sep 3
Waxing Crescent
Sep 5
First Quarter
Sep 14
Full
Sep 21
Last Quarter
Sep 28
New

Hourly Weather History & Observations

Time (EDT) Temp. Heat Index Dew Point Humidity Pressure Visibility Wind Dir Wind Speed Gust Speed Precip Events Conditions
12:53 AM 82.0 °F 87.9 °F 73.9 °F 76% 29.78 in 10.0 mi North 8.1 mph - N/A   Clear
1:53 AM 82.0 °F 88.6 °F 75.0 °F 79% 29.77 in 10.0 mi NNE 6.9 mph - N/A   Clear
2:53 AM 81.0 °F 86.7 °F 75.0 °F 82% 29.75 in 10.0 mi NNE 11.5 mph - N/A   Clear
3:53 AM 81.0 °F 86.7 °F 75.0 °F 82% 29.73 in 10.0 mi NNE 11.5 mph - N/A   Clear
4:53 AM 81.0 °F 86.7 °F 75.0 °F 82% 29.73 in 10.0 mi NNE 9.2 mph - N/A   Clear
5:53 AM 80.1 °F 85.1 °F 75.0 °F 85% 29.75 in 10.0 mi North 8.1 mph - N/A   Clear
6:53 AM 80.1 °F 85.1 °F 75.0 °F 85% 29.75 in 10.0 mi North 8.1 mph - N/A   Clear
7:53 AM 81.0 °F 87.3 °F 75.9 °F 85% 29.77 in 10.0 mi North 8.1 mph - N/A   Clear
8:53 AM 84.0 °F 92.6 °F 75.9 °F 76% 29.79 in 10.0 mi North 11.5 mph 18.4 mph N/A   Partly Cloudy
9:40 AM 86.0 °F 96.0 °F 75.9 °F 72% 29.80 in 10.0 mi North 5.8 mph - N/A   Mostly Cloudy
9:53 AM 87.1 °F 97.3 °F 75.9 °F 69% 29.80 in 10.0 mi North 12.7 mph 18.4 mph N/A   Overcast
10:34 AM 88.0 °F 98.5 °F 75.9 °F 67% 29.80 in 10.0 mi NNE 10.4 mph - N/A   Mostly Cloudy
10:53 AM 87.1 °F 97.3 °F 75.9 °F 69% 29.81 in 10.0 mi North 12.7 mph - N/A   Mostly Cloudy
11:53 AM 89.1 °F 99.1 °F 75.0 °F 63% 29.80 in 10.0 mi North 12.7 mph - N/A   Mostly Cloudy
12:00 PM 89.1 °F 98.0 °F 73.9 °F 61% 29.80 in 10.0 mi North 10.4 mph - N/A   Scattered Clouds
12:53 PM 91.9 °F 103.2 °F 75.0 °F 58% 29.78 in 10.0 mi North 10.4 mph - N/A   Partly Cloudy
1:53 PM 90.0 °F 99.0 °F 73.9 °F 59% 29.77 in 10.0 mi North 12.7 mph - N/A   Overcast
2:53 PM 93.0 °F 104.6 °F 75.0 °F 56% 29.75 in 10.0 mi NNW 11.5 mph - N/A   Scattered Clouds
4:16 PM 89.1 °F 99.1 °F 75.0 °F 63% 29.74 in 10.0 mi North 16.1 mph 20.7 mph N/A   Scattered Clouds
4:30 PM 88.0 °F 97.5 °F 75.0 °F 65% 29.73 in 10.0 mi North 11.5 mph 20.7 mph N/A Thunderstorm Partly Cloudy
4:53 PM 90.0 °F 101.3 °F 75.9 °F 63% 29.73 in 10.0 mi North 8.1 mph - N/A   Clear
5:53 PM 88.0 °F 94.7 °F 72.0 °F 59% 29.74 in 10.0 mi North 15.0 mph 23.0 mph N/A   Scattered Clouds
6:53 PM 87.1 °F 92.8 °F 71.1 °F 59% 29.75 in 10.0 mi NNE 11.5 mph 19.6 mph N/A   Clear
7:53 PM 84.9 °F 90.1 °F 71.1 °F 63% 29.76 in 10.0 mi North 11.5 mph 18.4 mph N/A   Clear
8:53 PM 84.0 °F 89.0 °F 71.1 °F 65% 29.78 in 10.0 mi NNE 10.4 mph - N/A   Clear
9:53 PM 84.0 °F 90.2 °F 73.0 °F 69% 29.79 in 10.0 mi North 8.1 mph - N/A   Clear
10:53 PM 84.0 °F 91.2 °F 73.9 °F 72% 29.80 in 10.0 mi North 11.5 mph - N/A   Clear
11:53 PM 82.9 °F 90.2 °F 75.0 °F 77% 29.79 in 10.0 mi NNW 8.1 mph - N/A   Clear